This is the latest recevied weather packets stored in our database for station/object KD4WXI. If no packets are shown the sender has not sent any weather packets the latest 10 day(s).
| Time | Temp. | Humidity | Pressure | Rain* | Wind** | Luminosity | Snow |
|---|---|---|---|---|---|---|---|
| 1778025004 | 22.78° C | 45% | 1013.6 hPa | 0 mm | - | 9 W/m² | - |
| 1778024702 | 23.33° C | 44% | 1013.8 hPa | 0 mm | - | 10 W/m² | - |
| 1778024399 | 23.33° C | 43% | 1013.9 hPa | 0 mm | - | 10 W/m² | - |
| 1778024096 | 23.33° C | 43% | 1013.5 hPa | 0 mm | - | 12 W/m² | - |
| 1778023793 | 23.33° C | 43% | 1013.8 hPa | 0 mm | - | 19 W/m² | - |
| 1778023491 | 23.33° C | 44% | 1013.8 hPa | 0 mm | - | 22 W/m² | - |
| 1778023188 | 23.89° C | 44% | 1013.6 hPa | 0 mm | - | 24 W/m² | - |
| 1778022885 | 23.89° C | 43% | 1013.5 hPa | 0 mm | - | 33 W/m² | - |
| 1778022583 | 23.89° C | 42% | 1013.5 hPa | 0 mm | - | 40 W/m² | - |
| 1778022281 | 23.89° C | 43% | 1013.5 hPa | 0 mm | - | 40 W/m² | - |
| 1778021977 | 23.89° C | 43% | 1013.7 hPa | 0 mm | - | 44 W/m² | - |
| 1778021675 | 23.89° C | 43% | 1013.5 hPa | 0 mm | - | 55 W/m² | - |
| 1778021370 | 23.89° C | 43% | 1013.6 hPa | 0 mm | - | 45 W/m² | - |
| 1778021067 | 24.44° C | 41% | 1013.8 hPa | 0 mm | - | 52 W/m² | - |
| 1778020764 | 23.89° C | 41% | 1013.5 hPa | 0 mm | - | 62 W/m² | - |
| 1778020461 | 23.89° C | 42% | 1013.4 hPa | 0 mm | - | 75 W/m² | - |
| 1778020158 | 23.89° C | 42% | 1013.6 hPa | 0 mm | - | 68 W/m² | - |
| 1778019854 | 23.89° C | 41% | 1013.6 hPa | 0 mm | - | 64 W/m² | - |
| 1778019550 | 23.89° C | 43% | 1013.8 hPa | 0 mm | - | 51 W/m² | - |
| 1778019248 | 23.89° C | 40% | 1013.9 hPa | 0 mm | - | 49 W/m² | - |
| 1778018944 | 23.89° C | 41% | 1013.7 hPa | 0 mm | - | 39 W/m² | - |
| 1778018641 | 24.44° C | 39% | 1014 hPa | 0 mm | - | 23 W/m² | - |
| 1778018339 | 24.44° C | 41% | 1013.9 hPa | 0 mm | - | 37 W/m² | - |
| 1778018037 | 24.44° C | 40% | 1013.8 hPa | 0 mm | - | 42 W/m² | - |
| 1778017735 | 24.44° C | 39% | 1014 hPa | 0 mm | - | 42 W/m² | - |
* Rain latest hour (hover to see other rain measurements)
** Current wind speed in m/s (hover to see current wind gust speed)